NOAA 16 DEB, 41536

Orbit data source: Space-Track

NOAA 16 DEB, 41536 is space debris in SSO originally from a launch on Thu, 21 Sep 2000 UTC launched from the Air Force Western Test Range (AFWTR). Debris objects in space refer to the collection of defunct objects orbiting the Earth. Examples of debris include non-operational satellites, rocket bodies, and fragments generated from explosions, collisions, or faulty payload assembly.

Loading next visibility...
Identifier
41536, 2000-055NL
Orbit
SSO
Country
Flag of USUS
Related business
Manufacturer
Unknown
Mission
Spacecraft
Bus & Motor
Unknown
Mass
Unknown
Launch date (UTC)
2000-09-21 (25 years ago)
Launch vehicle
Unknown
Launch site
Air Force Western Test Range (AFWTR)
Object type
Payload
Rocket body
Debris
Shape & HBR
Unknown
Radar Cross Section
Small (<0.1 m²)

Expand to show TLE details & history
Last TLE update: 1 day ago

TLE from 1 day ago
0 NOAA 16 DEB
1 41536U 00055NL  25260.50114683  .00004263  00000-0  15586-2 0  9994
2 41536  98.7349 356.3180 0011568 263.8412  96.1454 14.33442677500346
Epoch: 2025-09-17T12:01Z
TLE epoch observation values (Epoch: 2025-09-17T12:01:39.086Z)
Latitude
Longitude
179.22895°
Altitude
784.075 km
Speed
7.461 km/s
True Right ascension
23h 45m 16s
True Declination
0° 00' 00"
Sunlit
Object was in full shadow at epoch
Visualization orbit readout
Latitude
Unknown
Longitude
Unknown
Altitude
Unknown
Speed
Unknown
Apparent Right ascension
Unknown
Apparent Declination
Unknown
Sunlit
N/A
Visualization observer readout
Local Sidereal Time
07:19:49
Azimuth
Unknown
Elevation
Unknown
Doppler factor
Unknown
Orbital elements
Apogee altitude
785.666 km
Perigee altitude
769.111 km
Semi-major axis
7,155.525 km
Eccentricity
0.00116
Inclination
98.7349°
RAAN
356.318°
Arg. of periapsis
263.8412°
True anomaly
96.27718°
Mean anomaly
96.1454°
Eccentric anomaly
96.21129°
Mean motion
3.58576 °/min
Orbital period
100.4 mins
BSTAR
0.0015586
Loading maneuver chart data...
Computing Atmospheric mass density...
Loading historical data...
Loading historical data...
Loading historical data...
Loading historical data...
Loading historical data...
Loading historical data...
Loading historical data...

Documentation

Showing up to 5 results
|